Regional Weather Roundup
Issued by NWS

Home | Current Version | Previous Version | Graphics & Text | Print | Product List | Glossary On
Versions: 1 2 3 4 5 6 7 8 9 10 11 12 13 14 15 16 17 18 19 20 21 22 23 24 25 26 27
000
ASUS45 KCYS 310510
RWRWY

WYOMING REGIONAL WEATHER ROUNDUP
NATIONAL WEATHER SERVICE CHEYENNE WY
1100 PM MDT MON MAY 30 2016

NOTE:  "FAIR" INDICATES FEW OR NO CLOUDS BELOW 12,000 FEET
WITH NO SIGNIFICANT WEATHER AND/OR OBSTRUCTIONS TO VISIBILITY.

WYZ001-310600-
YELLOWSTONE NATIONAL PARK

CITY           SKY/WX    TMP DP  RH WIND       PRES   REMARKS
LK YELLOWSTONE   N/A     35  24  64 W3        30.26R
W YELLOWSTONE  NOT AVBL

$$
WYZ002>013-054>058-071-098>099-310600-
NORTHERN WYOMING

CITY           SKY/WX    TMP DP  RH WIND       PRES   REMARKS
JACKSON        CLOUDY    48  39  71 N6        30.17R
CODY           CLOUDY    50  36  57 NW7       30.17R
GREYBULL       FAIR      55  35  47 W13       30.10R
WORLAND        CLOUDY    56  33  42 NW8       30.11R
SHERIDAN       FAIR      43  39  86 NW7       30.13F
BUFFALO        FAIR      46  41  82 E6        30.16R
GILLETTE       MOCLDY    45  42  89 W7        30.12S
HULETT         FAIR      48  36  61 NW6       30.12S
NEWCASTLE      FAIR      48  37  66 NW15      30.10R

$$
WYZ014>020-022>026-101>103-310600-
CENTRAL WYOMING

CITY           SKY/WX    TMP DP  RH WIND       PRES   REMARKS
BIG PINEY      FAIR     N/A N/A N/A NW10      30.19R
PINEDALE       FAIR      41  32  70 NW7       30.19S
DUBOIS         MOCLDY    43  32  65 CALM      30.18S
LANDER         MOCLDY    53  37  54 CALM      30.16R
RIVERTON       CLOUDY    53  37  54 E6        30.17R
CASPER         CLOUDY    49  37  63 NE12      30.19R
DOUGLAS          N/A    N/A N/A N/A MISG      30.17R

$$
WYZ021-027>030-104>119-310600-
SOUTHERN WYOMING

CITY           SKY/WX    TMP DP  RH WIND       PRES   REMARKS
EVANSTON       FAIR      52  37  56 VRB5      30.20R
KEMMERER         N/A     45  30  57 NW10      30.21R
FORT BRIDGER   CLEAR     52  32  46 CALM      30.22R
ROCK SPRINGS   FAIR      52  30  43 NW8       30.17R
DIXON          FAIR      44  32  61 CALM      30.16R
RAWLINS        FAIR      45  40  82 NE6       30.17R
SARATOGA       FAIR      45  41  87 W8        30.16R
LARAMIE        FAIR      45  39  79 NE7       30.13R
CHEYENNE       FAIR      49  44  83 N15       30.13R
TORRINGTON     MOCLDY    51  44  77 N10G20    30.10R
PINE BLUFFS    LGT RAIN  52  48  87 N15G25    30.11R

$$




USA.gov is the U.S. government's official web portal to all federal, state and local government web resources and services.